Time,TemperatureF,DewpointF,PressureIn,WindDirection,WindDirectionDegrees,WindSpeedMPH,WindSpeedGustMPH,Humidity,HourlyPrecipIn,Conditions,Clouds,dailyrainin,SoftwareType,DateUTC
2013-02-05 00:42:00,37.0,-99.9,29.56,NE,43,-999.0,1.0,-999,-99.99,,,-99.99,,2013-02-05 09:42:00,
2013-02-05 00:52:00,37.0,-99.9,29.56,North,-999,-999.0,-999.0,-999,-99.99,,,-99.99,,2013-02-05 09:52:00,
2013-02-05 01:02:00,37.0,-99.9,29.56,South,184,0.0,1.0,-999,-99.99,,,-99.99,,2013-02-05 10:02:00,
2013-02-05 01:11:00,37.0,-99.9,29.56,North,-999,-999.0,-999.0,-999,-99.99,,,-99.99,,2013-02-05 10:11:00,
2013-02-05 01:22:00,38.0,-99.9,29.55,North,-999,-999.0,-999.0,-999,-99.99,,,-99.99,,2013-02-05 10:22:00,
2013-02-05 01:32:00,38.0,-99.9,29.55,West,281,0.0,2.0,-999,-99.99,,,-99.99,,2013-02-05 10:32:00,
2013-02-05 01:42:00,37.0,-99.9,29.55,West,260,-999.0,1.0,-999,-99.99,,,-99.99,,2013-02-05 10:42:00,
2013-02-05 01:52:00,37.0,-99.9,29.55,NNW,345,2.0,3.0,-999,-99.99,,,-99.99,,2013-02-05 10:52:00,
2013-02-05 02:01:00,37.0,-99.9,29.55,North,7,4.0,4.0,-999,-99.99,,,-99.99,,2013-02-05 11:01:00,
2013-02-05 02:11:00,37.0,-99.9,29.55,North,352,3.0,4.0,-999,-99.99,,,-99.99,,2013-02-05 11:11:00,
2013-02-05 02:22:00,37.0,-99.9,29.55,North,9,2.0,4.0,-999,-99.99,,,-99.99,,2013-02-05 11:22:00,
2013-02-05 02:32:00,37.0,-99.9,29.55,North,352,2.0,4.0,-999,-99.99,,,-99.99,,2013-02-05 11:32:00,
2013-02-05 02:42:00,38.0,-99.9,29.54,NW,304,3.0,4.0,-999,-99.99,,,-99.99,,2013-02-05 11:42:00,
2013-02-05 02:52:00,38.0,-99.9,29.54,NW,315,1.0,2.0,-999,-99.99,,,-99.99,,2013-02-05 11:52:00,
2013-02-05 03:02:00,38.0,-99.9,29.54,NNE,23,1.0,3.0,-999,-99.99,,,-99.99,,2013-02-05 12:02:00,
2013-02-05 03:12:00,38.0,-99.9,29.54,North,355,1.0,3.0,-999,-99.99,,,-99.99,,2013-02-05 12:12:00,
2013-02-05 03:22:00,38.0,-99.9,29.54,NNE,14,2.0,3.0,-999,-99.99,,,-99.99,,2013-02-05 12:22:00,
2013-02-05 03:30:00,38.0,-99.9,29.54,NNW,348,2.0,4.0,-999,-99.99,,,-99.99,,2013-02-05 12:30:00,
2013-02-05 03:32:00,38.0,-99.9,29.54,NNE,15,3.0,5.0,-999,-99.99,,,-99.99,,2013-02-05 12:32:00,
2013-02-05 03:42:00,38.0,-99.9,29.54,NW,326,4.0,5.0,-999,-99.99,,,-99.99,,2013-02-05 12:42:00,
2013-02-05 03:52:00,38.0,-99.9,29.54,North,351,1.0,4.0,-999,-99.99,,,-99.99,,2013-02-05 12:52:00,
2013-02-05 04:02:00,38.0,-99.9,29.54,NNW,348,2.0,4.0,-999,-99.99,,,-99.99,,2013-02-05 13:02:00,
2013-02-05 04:12:00,38.0,-99.9,29.54,NNW,348,2.0,4.0,-999,-99.99,,,-99.99,,2013-02-05 13:12:00,
2013-02-05 04:22:00,38.0,-99.9,29.54,NNW,348,2.0,4.0,-999,-99.99,,,-99.99,,2013-02-05 13:22:00,
2013-02-05 05:01:00,36.0,-99.9,29.53,SSE,159,3.0,4.0,-999,-99.99,,,-99.99,,2013-02-05 14:01:00,
2013-02-05 05:12:00,35.0,-99.9,29.53,SE,143,2.0,3.0,-999,-99.99,,,-99.99,,2013-02-05 14:12:00,
2013-02-05 05:22:00,35.0,-99.9,29.53,South,171,2.0,2.0,-999,-99.99,,,-99.99,,2013-02-05 14:22:00,
2013-02-05 05:32:00,35.0,-99.9,29.53,SSE,158,1.0,2.0,-999,-99.99,,,-99.99,,2013-02-05 14:32:00,
2013-02-05 05:42:00,35.0,-99.9,29.53,South,179,2.0,2.0,-999,-99.99,,,-99.99,,2013-02-05 14:42:00,
2013-02-05 05:52:00,35.0,-99.9,29.53,SSE,155,2.0,3.0,-999,-99.99,,,-99.99,,2013-02-05 14:52:00,
2013-02-05 06:02:00,35.0,-99.9,29.53,South,180,2.0,3.0,-999,-99.99,,,-99.99,,2013-02-05 15:02:00,
2013-02-05 06:11:00,35.0,-99.9,29.53,South,173,3.0,4.0,-999,-99.99,,,-99.99,,2013-02-05 15:11:00,
2013-02-05 06:22:00,35.0,-99.9,29.53,SSE,149,2.0,3.0,-999,-99.99,,,-99.99,,2013-02-05 15:22:00,
2013-02-05 06:32:00,35.0,-99.9,29.53,SSE,149,2.0,3.0,-999,-99.99,,,-99.99,,2013-02-05 15:32:00,
2013-02-05 06:42:00,35.0,-99.9,29.53,SSE,149,2.0,3.0,-999,-99.99,,,-99.99,,2013-02-05 15:42:00,
2013-02-05 06:52:00,35.0,-99.9,29.53,SSE,149,2.0,3.0,-999,-99.99,,,-99.99,,2013-02-05 15:52:00,
2013-02-05 07:01:00,35.0,-99.9,29.53,SSE,150,1.0,2.0,-999,-99.99,,,-99.99,,2013-02-05 16:01:00,
2013-02-05 07:12:00,35.0,-99.9,29.53,South,188,1.0,1.0,-999,-99.99,,,-99.99,,2013-02-05 16:12:00,
2013-02-05 07:22:00,35.0,-99.9,29.53,SSE,159,1.0,2.0,-999,-99.99,,,-99.99,,2013-02-05 16:22:00,
2013-02-05 07:33:00,35.0,-99.9,29.52,SSE,163,2.0,2.0,-999,-99.99,,,-99.99,,2013-02-05 16:33:00,
2013-02-05 07:42:00,35.0,-99.9,29.52,SSE,165,2.0,3.0,-999,-99.99,,,-99.99,,2013-02-05 16:42:00,
2013-02-05 07:52:00,35.0,-99.9,29.52,SSE,149,2.0,2.0,-999,-99.99,,,-99.99,,2013-02-05 16:52:00,
2013-02-05 08:01:00,35.0,-99.9,29.53,South,188,-999.0,3.0,-999,-99.99,,,-99.99,,2013-02-05 17:01:00,
2013-02-05 08:12:00,35.0,-99.9,29.53,South,178,1.0,2.0,-999,-99.99,,,-99.99,,2013-02-05 17:12:00,
2013-02-05 08:22:00,35.0,-99.9,29.53,East,100,0.0,1.0,-999,-99.99,,,-99.99,,2013-02-05 17:22:00,
2013-02-05 08:33:00,35.0,-99.9,29.53,SE,142,1.0,2.0,-999,-99.99,,,-99.99,,2013-02-05 17:33:00,
2013-02-05 08:42:00,36.0,-99.9,29.53,SSE,152,0.0,2.0,-999,-99.99,,,-99.99,,2013-02-05 17:42:00,
2013-02-05 08:52:00,36.0,-99.9,29.53,SE,134,-999.0,2.0,-999,-99.99,,,-99.99,,2013-02-05 17:52:00,
2013-02-05 09:02:00,36.0,-99.9,29.53,SSE,167,0.0,1.0,-999,-99.99,,,-99.99,,2013-02-05 18:02:00,
2013-02-05 09:12:00,36.0,-99.9,29.53,South,182,1.0,1.0,-999,-99.99,,,-99.99,,2013-02-05 18:12:00,
2013-02-05 09:22:00,35.0,-99.9,29.53,SSE,158,3.0,4.0,-999,-99.99,,,-99.99,,2013-02-05 18:22:00,
2013-02-05 09:32:00,35.0,-99.9,29.53,SSE,166,3.0,4.0,-999,-99.99,,,-99.99,,2013-02-05 18:32:00,
2013-02-05 09:42:00,35.0,-99.9,29.53,SSE,159,4.0,5.0,-999,-99.99,,,-99.99,,2013-02-05 18:42:00,
2013-02-05 09:52:00,35.0,-99.9,29.53,SSE,153,3.0,5.0,-999,-99.99,,,-99.99,,2013-02-05 18:52:00,
2013-02-05 10:02:00,35.0,-99.9,29.53,SSE,164,3.0,3.0,-999,-99.99,,,-99.99,,2013-02-05 19:02:00,
2013-02-05 10:11:00,35.0,-99.9,29.52,SSE,164,3.0,3.0,-999,-99.99,,,-99.99,,2013-02-05 19:11:00,
2013-02-05 10:22:00,35.0,-99.9,29.52,SSE,158,4.0,4.0,-999,-99.99,,,-99.99,,2013-02-05 19:22:00,
2013-02-05 10:32:00,35.0,-99.9,29.52,SSE,164,5.0,6.0,-999,-99.99,,,-99.99,,2013-02-05 19:32:00,
2013-02-05 10:42:00,36.0,-99.9,29.52,SSE,159,4.0,6.0,-999,-99.99,,,-99.99,,2013-02-05 19:42:00,
2013-02-05 10:52:00,36.0,-99.9,29.52,SSE,157,4.0,6.0,-999,-99.99,,,-99.99,,2013-02-05 19:52:00,
2013-02-05 11:02:00,36.0,-99.9,29.52,South,173,7.0,8.0,-999,-99.99,,,-99.99,,2013-02-05 20:02:00,
2013-02-05 11:11:00,37.0,-99.9,29.52,SSE,167,6.0,8.0,-999,-99.99,,,-99.99,,2013-02-05 20:11:00,
2013-02-05 11:22:00,37.0,-99.9,29.52,SSE,148,5.0,6.0,-999,-99.99,,,-99.99,,2013-02-05 20:22:00,
2013-02-05 11:32:00,38.0,-99.9,29.52,SSE,148,4.0,6.0,-999,-99.99,,,-99.99,,2013-02-05 20:32:00,
2013-02-05 11:42:00,38.0,-99.9,29.52,SSE,153,4.0,5.0,-999,-99.99,,,-99.99,,2013-02-05 20:42:00,
2013-02-05 11:52:00,38.0,-99.9,29.52,SSE,153,4.0,5.0,-999,-99.99,,,-99.99,,2013-02-05 20:52:00,
2013-02-05 12:02:00,38.0,-99.9,29.52,SE,146,4.0,5.0,-999,-99.99,,,-99.99,,2013-02-05 21:02:00,
2013-02-05 12:11:00,39.0,-99.9,29.52,SE,143,4.0,5.0,-999,-99.99,,,-99.99,,2013-02-05 21:11:00,
2013-02-05 12:22:00,39.0,-99.9,29.52,SSE,154,4.0,6.0,-999,-99.99,,,-99.99,,2013-02-05 21:22:00,
2013-02-05 12:32:00,40.0,-99.9,29.52,SSE,153,2.0,4.0,-999,-99.99,,,-99.99,,2013-02-05 21:32:00,
2013-02-05 12:42:00,40.0,-99.9,29.52,NNW,343,1.0,2.0,-999,-99.99,,,-99.99,,2013-02-05 21:42:00,
2013-02-05 12:52:00,41.0,-99.9,29.52,North,5,0.0,2.0,-999,-99.99,,,-99.99,,2013-02-05 21:52:00,
2013-02-05 13:02:00,41.0,-99.9,29.52,North,5,0.0,2.0,-999,-99.99,,,-99.99,,2013-02-05 22:02:00,
2013-02-05 13:12:00,43.0,-99.9,29.52,WSW,248,1.0,3.0,-999,-99.99,,,-99.99,,2013-02-05 22:12:00,
2013-02-05 13:22:00,43.0,-99.9,29.52,SSE,152,1.0,1.0,-999,-99.99,,,-99.99,,2013-02-05 22:22:00,
2013-02-05 13:32:00,41.0,-99.9,29.52,South,170,2.0,2.0,-999,-99.99,,,-99.99,,2013-02-05 22:32:00,
2013-02-05 13:42:00,41.0,-99.9,29.52,SW,227,2.0,3.0,-999,-99.99,,,-99.99,,2013-02-05 22:42:00,
2013-02-05 13:52:00,40.0,-99.9,29.52,South,177,4.0,4.0,-999,-99.99,,,-99.99,,2013-02-05 22:52:00,
2013-02-05 14:02:00,40.0,-99.9,29.52,South,177,4.0,4.0,-999,-99.99,,,-99.99,,2013-02-05 23:02:00,
2013-02-05 14:11:00,40.0,-99.9,29.52,SSE,167,4.0,5.0,-999,-99.99,,,-99.99,,2013-02-05 23:11:00,
2013-02-05 14:22:00,40.0,-99.9,29.52,SSE,167,4.0,4.0,-999,-99.99,,,-99.99,,2013-02-05 23:22:00,
2013-02-05 14:33:00,41.0,-99.9,29.52,SSE,164,4.0,5.0,-999,-99.99,,,-99.99,,2013-02-05 23:33:00,
2013-02-05 14:42:00,41.0,-99.9,29.52,SSE,166,5.0,5.0,-999,-99.99,,,-99.99,,2013-02-05 23:42:00,
2013-02-05 14:53:00,41.0,-99.9,29.52,SSE,157,4.0,5.0,-999,-99.99,,,-99.99,,2013-02-05 23:53:00,
2013-02-05 15:02:00,41.0,-99.9,29.52,SSE,159,4.0,6.0,-999,-99.99,,,-99.99,,2013-02-06 00:02:00,
2013-02-05 15:12:00,42.0,-99.9,29.52,SSE,163,4.0,4.0,-999,-99.99,,,-99.99,,2013-02-06 00:12:00,
2013-02-05 15:22:00,42.0,-99.9,29.52,SSE,163,3.0,4.0,-999,-99.99,,,-99.99,,2013-02-06 00:22:00,
2013-02-05 15:32:00,42.0,-99.9,29.52,SSE,157,3.0,3.0,-999,-99.99,,,-99.99,,2013-02-06 00:32:00,
2013-02-05 15:42:00,43.0,-99.9,29.52,South,177,1.0,2.0,-999,-99.99,,,-99.99,,2013-02-06 00:42:00,
2013-02-05 15:52:00,42.0,-99.9,29.52,SSE,149,2.0,3.0,-999,-99.99,,,-99.99,,2013-02-06 00:52:00,
2013-02-05 16:02:00,42.0,-99.9,29.51,SE,133,1.0,2.0,-999,-99.99,,,-99.99,,2013-02-06 01:02:00,
2013-02-05 16:12:00,41.0,-99.9,29.52,WSW,247,-999.0,10.0,-999,-99.99,,,-99.99,,2013-02-06 01:12:00,
2013-02-05 16:22:00,41.0,-99.9,29.52,WSW,238,4.0,10.0,-999,-99.99,,,-99.99,,2013-02-06 01:22:00,
2013-02-05 16:33:00,41.0,-99.9,29.52,WSW,243,1.0,6.0,-999,-99.99,,,-99.99,,2013-02-06 01:33:00,
2013-02-05 16:42:00,42.0,-99.9,29.52,West,274,5.0,9.0,-999,-99.99,,,-99.99,,2013-02-06 01:42:00,
2013-02-05 16:53:00,40.0,-99.9,29.52,South,186,2.0,7.0,-999,-99.99,,,-99.99,,2013-02-06 01:53:00,
2013-02-05 17:02:00,40.0,-99.9,29.52,South,183,5.0,6.0,-999,-99.99,,,-99.99,,2013-02-06 02:02:00,
2013-02-05 17:12:00,40.0,-99.9,29.52,South,181,5.0,6.0,-999,-99.99,,,-99.99,,2013-02-06 02:12:00,
2013-02-05 17:22:00,40.0,-99.9,29.51,SSW,194,3.0,5.0,-999,-99.99,,,-99.99,,2013-02-06 02:22:00,
2013-02-05 17:32:00,40.0,-99.9,29.51,South,187,4.0,6.0,-999,-99.99,,,-99.99,,2013-02-06 02:32:00,
2013-02-05 17:42:00,39.0,-99.9,29.51,South,186,4.0,7.0,-999,-99.99,,,-99.99,,2013-02-06 02:42:00,
2013-02-05 17:53:00,39.0,-99.9,29.52,SSW,213,5.0,6.0,-999,-99.99,,,-99.99,,2013-02-06 02:53:00,
2013-02-05 18:03:00,40.0,-99.9,29.52,South,183,4.0,6.0,-999,-99.99,,,-99.99,,2013-02-06 03:03:00,
2013-02-05 18:12:00,40.0,-99.9,29.52,SW,215,4.0,8.0,-999,-99.99,,,-99.99,,2013-02-06 03:12:00,
2013-02-05 18:22:00,38.0,-99.9,29.52,South,173,9.0,11.0,-999,-99.99,,,-99.99,,2013-02-06 03:22:00,
2013-02-05 18:33:00,38.0,-99.9,29.52,SSE,158,6.0,10.0,-999,-99.99,,,-99.99,,2013-02-06 03:33:00,
2013-02-05 18:43:00,38.0,-99.9,29.52,South,175,5.0,5.0,-999,-99.99,,,-99.99,,2013-02-06 03:43:00,
2013-02-05 18:53:00,37.0,-99.9,29.52,SSE,151,3.0,5.0,-999,-99.99,,,-99.99,,2013-02-06 03:53:00,
2013-02-05 19:02:00,38.0,-99.9,29.53,SW,220,3.0,7.0,-999,-99.99,,,-99.99,,2013-02-06 04:02:00,
2013-02-05 19:11:00,39.0,-99.9,29.52,NE,53,2.0,4.0,-999,-99.99,,,-99.99,,2013-02-06 04:11:00,
2013-02-05 19:22:00,38.0,-99.9,29.52,South,177,2.0,4.0,-999,-99.99,,,-99.99,,2013-02-06 04:22:00,
2013-02-05 19:32:00,38.0,-99.9,29.52,SSE,157,5.0,6.0,-999,-99.99,,,-99.99,,2013-02-06 04:32:00,
2013-02-05 19:42:00,38.0,-99.9,29.52,SSE,158,8.0,9.0,-999,-99.99,,,-99.99,,2013-02-06 04:42:00,
2013-02-05 19:52:00,38.0,-99.9,29.52,SSE,167,7.0,9.0,-999,-99.99,,,-99.99,,2013-02-06 04:52:00,
2013-02-05 20:02:00,37.0,-99.9,29.52,SSW,212,4.0,6.0,-999,-99.99,,,-99.99,,2013-02-06 05:02:00,
2013-02-05 20:12:00,37.0,-99.9,29.52,North,2,4.0,5.0,-999,-99.99,,,-99.99,,2013-02-06 05:12:00,
2013-02-05 20:22:00,37.0,-99.9,29.52,North,2,4.0,5.0,-999,-99.99,,,-99.99,,2013-02-06 05:22:00,
2013-02-05 20:32:00,37.0,-99.9,29.52,North,2,4.0,5.0,-999,-99.99,,,-99.99,,2013-02-06 05:32:00,
2013-02-05 20:42:00,35.0,-99.9,29.53,North,356,3.0,4.0,-999,-99.99,,,-99.99,,2013-02-06 05:42:00,
2013-02-05 20:53:00,37.0,-99.9,29.53,NNE,20,2.0,3.0,-999,-99.99,,,-99.99,,2013-02-06 05:53:00,
2013-02-05 21:01:00,37.0,-99.9,29.53,NNE,29,-999.0,2.0,-999,-99.99,,,-99.99,,2013-02-06 06:01:00,
2013-02-05 21:11:00,35.0,-99.9,29.54,East,84,-999.0,1.0,-999,-99.99,,,-99.99,,2013-02-06 06:11:00,
2013-02-05 21:22:00,36.0,-99.9,29.53,SSE,150,3.0,3.0,-999,-99.99,,,-99.99,,2013-02-06 06:22:00,
2013-02-05 21:32:00,35.0,-99.9,29.54,SE,133,1.0,3.0,-999,-99.99,,,-99.99,,2013-02-06 06:32:00,
2013-02-05 21:42:00,34.0,-99.9,29.53,WSW,257,1.0,1.0,-999,-99.99,,,-99.99,,2013-02-06 06:42:00,
2013-02-05 21:52:00,35.0,-99.9,29.54,South,175,1.0,4.0,-999,-99.99,,,-99.99,,2013-02-06 06:52:00,
2013-02-05 22:02:00,35.0,-99.9,29.54,North,354,1.0,2.0,-999,-99.99,,,-99.99,,2013-02-06 07:02:00,
2013-02-05 22:11:00,35.0,-99.9,29.54,East,97,4.0,5.0,-999,-99.99,,,-99.99,,2013-02-06 07:11:00,
2013-02-05 22:22:00,33.0,-99.9,29.54,SSE,149,1.0,4.0,-999,-99.99,,,-99.99,,2013-02-06 07:22:00,
2013-02-05 22:32:00,33.0,-99.9,29.54,SSW,205,-999.0,1.0,-999,-99.99,,,-99.99,,2013-02-06 07:32:00,
2013-02-05 22:42:00,33.0,-99.9,29.54,SSE,167,1.0,1.0,-999,-99.99,,,-99.99,,2013-02-06 07:42:00,
2013-02-05 22:52:00,33.0,-99.9,29.54,SSE,158,1.0,2.0,-999,-99.99,,,-99.99,,2013-02-06 07:52:00,
2013-02-05 23:01:00,34.0,-99.9,29.54,SSE,147,2.0,2.0,-999,-99.99,,,-99.99,,2013-02-06 08:01:00,
2013-02-05 23:11:00,33.0,-99.9,29.55,SE,141,1.0,2.0,-999,-99.99,,,-99.99,,2013-02-06 08:11:00,
2013-02-05 23:21:00,32.0,-99.9,29.55,North,2,0.0,2.0,-999,-99.99,,,-99.99,,2013-02-06 08:21:00,
2013-02-05 23:32:00,32.0,-99.9,29.55,North,4,-999.0,3.0,-999,-99.99,,,-99.99,,2013-02-06 08:32:00,
2013-02-05 23:42:00,33.0,-99.9,29.54,North,351,2.0,2.0,-999,-99.99,,,-99.99,,2013-02-06 08:42:00,
2013-02-05 23:53:00,34.0,-99.9,29.54,NNE,29,1.0,2.0,-999,-99.99,,,-99.99,,2013-02-06 08:53:00,